BCS176 EDDK-EDDP

Flight info

Callsign BCS176
Flight time 0h 42m
Altitude 23000
Route PODIP9F/13L PODIP Y867 PELUN DCT ERSET N858 MAXOT T212 LASTO T956 GOXLI GOXLI1V
Aircraft A306/H-SDE3FGHIRWY/LB1

Departure

Time 2026-04-22 18:49
Airport Cologne Bonn Airport (EDDK)

Arrival

Time 2026-04-22 19:31
Airport Leipzig/Halle Airport (EDDP)
Time Latitude Longitude Altitude Speed Heading
2026-04-22 17:42 50.87204 7.13333 240 ft 0 kts 227°
2026-04-22 17:44 50.87176 7.13364 241 ft 0 kts 227°
2026-04-22 18:26 50.87180 7.13372 241 ft 4 kts 227°
2026-04-22 18:26 50.87199 7.13403 241 ft 4 kts 227°
2026-04-22 18:26 50.87213 7.13428 241 ft 4 kts 231°
2026-04-22 18:27 50.87225 7.13463 241 ft 4 kts 269°
2026-04-22 18:27 50.87218 7.13496 241 ft 3 kts 317°
2026-04-22 18:27 50.87202 7.13519 242 ft 2 kts 317°
2026-04-22 18:33 50.87209 7.13509 242 ft 2 kts 317°
2026-04-22 18:33 50.87225 7.13486 241 ft 4 kts 317°
2026-04-22 18:33 50.87249 7.13451 240 ft 6 kts 317°
2026-04-22 18:33 50.87282 7.13403 239 ft 7 kts 317°
2026-04-22 18:34 50.87323 7.13344 238 ft 10 kts 317°
2026-04-22 18:34 50.87387 7.13253 238 ft 14 kts 318°
2026-04-22 18:34 50.87467 7.13139 238 ft 17 kts 318°
2026-04-22 18:34 50.87558 7.13008 238 ft 19 kts 317°
2026-04-22 18:35 50.87659 7.12862 238 ft 21 kts 317°
2026-04-22 18:35 50.87763 7.12709 238 ft 20 kts 317°
2026-04-22 18:35 50.87872 7.12613 238 ft 17 kts 354°
2026-04-22 18:35 50.87973 7.12675 239 ft 12 kts 52°
2026-04-22 18:36 50.87976 7.12683 239 ft 0 kts 56°
2026-04-22 18:42 50.87983 7.12702 240 ft 3 kts 62°
2026-04-22 18:42 50.87992 7.12735 241 ft 5 kts 69°
2026-04-22 18:42 50.87998 7.12762 242 ft 0 kts 71°
2026-04-22 18:45 50.87998 7.12765 243 ft 2 kts 71°
2026-04-22 18:46 50.88006 7.12839 244 ft 13 kts 86°
2026-04-22 18:46 50.87968 7.13020 245 ft 14 kts 132°
2026-04-22 18:46 50.87963 7.13028 245 ft 0 kts 134°
2026-04-22 18:48 50.87892 7.13135 245 ft 41 kts 138°
2026-04-22 18:48 50.87492 7.13715 246 ft 112 kts 137°
2026-04-22 18:48 50.86771 7.14761 274 ft 167 kts 137°
2026-04-22 18:48 50.85804 7.16130 579 ft 198 kts 137°
2026-04-22 18:49 50.84711 7.17598 1249 ft 216 kts 137°
2026-04-22 18:49 50.83514 7.19200 1756 ft 235 kts 136°
2026-04-22 18:49 50.82300 7.21003 2385 ft 238 kts 125°
2026-04-22 18:49 50.81569 7.23258 3362 ft 228 kts 107°
2026-04-22 18:50 50.81238 7.25721 4116 ft 232 kts 98°
2026-04-22 18:50 50.81029 7.28270 4717 ft 235 kts 97°
2026-04-22 18:50 50.80827 7.30840 5004 ft 237 kts 97°
2026-04-22 18:50 50.80611 7.33500 5331 ft 252 kts 97°
2026-04-22 18:51 50.80376 7.36309 6049 ft 262 kts 97°
2026-04-22 18:51 50.80131 7.39180 7083 ft 265 kts 97°
2026-04-22 18:51 50.79879 7.42070 8079 ft 267 kts 96°
2026-04-22 18:51 50.79624 7.44991 9141 ft 269 kts 96°
2026-04-22 18:52 50.79364 7.47934 10153 ft 272 kts 96°
2026-04-22 18:52 50.79100 7.50937 10900 ft 283 kts 96°
2026-04-22 18:52 50.78847 7.54137 11272 ft 304 kts 92°
2026-04-22 18:52 50.78962 7.57559 11572 ft 322 kts 77°
2026-04-22 18:53 50.79802 7.60915 11874 ft 338 kts 58°
2026-04-22 18:53 50.81367 7.63809 12185 ft 354 kts 44°
2026-04-22 18:53 50.83224 7.66438 12681 ft 363 kts 41°
2026-04-22 18:53 50.85139 7.69086 13304 ft 368 kts 41°
2026-04-22 18:54 50.87067 7.71772 13951 ft 371 kts 41°
2026-04-22 18:54 50.89007 7.74496 14277 ft 373 kts 41°
2026-04-22 18:54 50.90943 7.77230 14340 ft 373 kts 42°
2026-04-22 18:54 50.92876 7.79989 14344 ft 374 kts 43°
2026-04-22 18:55 50.94586 7.83014 14346 ft 375 kts 52°
2026-04-22 18:55 50.96066 7.86421 14345 ft 375 kts 57°
2026-04-22 18:55 50.97424 7.89955 14345 ft 375 kts 59°
2026-04-22 18:55 50.98724 7.93547 14345 ft 375 kts 59°
2026-04-22 18:56 51.00023 7.97204 14349 ft 375 kts 60°
2026-04-22 18:56 51.01291 8.00766 14349 ft 375 kts 59°
2026-04-22 18:56 51.02586 8.04367 14353 ft 375 kts 59°
2026-04-22 18:56 51.03910 8.08014 14499 ft 379 kts 59°
2026-04-22 18:57 51.05242 8.11657 15123 ft 381 kts 59°
2026-04-22 18:57 51.06563 8.15259 15766 ft 383 kts 59°
2026-04-22 18:57 51.07931 8.18984 16388 ft 387 kts 59°
2026-04-22 18:57 51.09274 8.22647 17011 ft 390 kts 59°
2026-04-22 18:58 51.10639 8.26385 17585 ft 393 kts 59°
2026-04-22 18:58 51.12012 8.30159 18199 ft 396 kts 59°
2026-04-22 18:58 51.13394 8.33970 18714 ft 399 kts 59°
2026-04-22 18:58 51.14783 8.37812 19213 ft 402 kts 59°
2026-04-22 18:59 51.16179 8.41675 19676 ft 404 kts 59°
2026-04-22 18:59 51.17552 8.45595 20116 ft 407 kts 62°
2026-04-22 18:59 51.18609 8.49810 20559 ft 411 kts 72°
2026-04-22 18:59 51.19131 8.54303 21010 ft 415 kts 84°
2026-04-22 19:00 51.19004 8.58922 21479 ft 420 kts 96°
2026-04-22 19:00 51.18550 8.63514 21978 ft 420 kts 95°
2026-04-22 19:00 51.18212 8.68148 22426 ft 422 kts 95°
2026-04-22 19:00 51.17911 8.72814 22837 ft 424 kts 94°
2026-04-22 19:01 51.17627 8.77502 23227 ft 426 kts 94°
2026-04-22 19:01 51.17346 8.82201 23342 ft 427 kts 94°
2026-04-22 19:01 51.17063 8.86898 23337 ft 425 kts 94°
2026-04-22 19:01 51.16774 8.91592 23336 ft 425 kts 94°
2026-04-22 19:02 51.16480 8.96273 23328 ft 425 kts 94°
2026-04-22 19:02 51.16182 9.00965 23328 ft 425 kts 94°
2026-04-22 19:02 51.15881 9.05652 23327 ft 425 kts 95°
2026-04-22 19:02 51.15577 9.10328 23322 ft 425 kts 95°
2026-04-22 19:03 51.15271 9.15016 23321 ft 425 kts 95°
2026-04-22 19:03 51.14963 9.19693 23320 ft 425 kts 95°
2026-04-22 19:03 51.14653 9.24383 23319 ft 425 kts 95°
2026-04-22 19:03 51.14341 9.29066 23319 ft 425 kts 95°
2026-04-22 19:04 51.14029 9.33736 23318 ft 425 kts 95°
2026-04-22 19:04 51.13714 9.38421 23343 ft 425 kts 95°
2026-04-22 19:04 51.13398 9.43087 23344 ft 425 kts 95°
2026-04-22 19:04 51.13079 9.47769 23344 ft 425 kts 95°
2026-04-22 19:05 51.12758 9.52448 23353 ft 425 kts 95°
2026-04-22 19:05 51.12440 9.57059 23345 ft 425 kts 95°
2026-04-22 19:05 51.12115 9.61743 23340 ft 424 kts 95°
2026-04-22 19:05 51.11790 9.66403 23341 ft 424 kts 95°
2026-04-22 19:06 51.11462 9.71076 23343 ft 424 kts 95°
2026-04-22 19:06 51.11133 9.75732 23344 ft 424 kts 95°
2026-04-22 19:06 51.10802 9.80399 23342 ft 424 kts 95°
2026-04-22 19:07 51.10135 9.89732 23343 ft 424 kts 95°
2026-04-22 19:07 51.09798 9.94398 23343 ft 424 kts 95°
2026-04-22 19:07 51.09460 9.99055 23354 ft 425 kts 95°
2026-04-22 19:07 51.09119 10.03745 23346 ft 430 kts 95°
2026-04-22 19:08 51.08773 10.08484 23341 ft 432 kts 95°
2026-04-22 19:08 51.08422 10.13247 23338 ft 433 kts 95°
2026-04-22 19:08 51.08068 10.17992 23340 ft 433 kts 95°
2026-04-22 19:08 51.07713 10.22743 23344 ft 433 kts 95°
2026-04-22 19:09 51.07357 10.27486 23339 ft 433 kts 95°
2026-04-22 19:09 51.07208 10.32249 23334 ft 431 kts 86°
2026-04-22 19:09 51.07425 10.35373 23257 ft 426 kts 79°
2026-04-22 19:09 51.08523 10.41313 22083 ft 416 kts 69°
2026-04-22 19:10 51.09615 10.45593 21088 ft 416 kts 66°
2026-04-22 19:10 51.10807 10.49778 20545 ft 415 kts 65°
2026-04-22 19:10 51.12030 10.53924 20364 ft 415 kts 64°
2026-04-22 19:10 51.13251 10.58081 20338 ft 414 kts 65°
2026-04-22 19:11 51.14188 10.62420 20341 ft 415 kts 76°
2026-04-22 19:11 51.14511 10.66975 20345 ft 416 kts 86°
2026-04-22 19:11 51.14539 10.71593 20343 ft 416 kts 90°
2026-04-22 19:11 51.14418 10.76139 20344 ft 417 kts 91°
2026-04-22 19:12 51.14219 10.80802 20344 ft 417 kts 92°
2026-04-22 19:12 51.13998 10.85392 20366 ft 417 kts 92°
2026-04-22 19:12 51.13778 10.89979 20230 ft 415 kts 92°
2026-04-22 19:12 51.13570 10.94561 19793 ft 414 kts 92°
2026-04-22 19:13 51.13374 10.99121 19332 ft 413 kts 92°
2026-04-22 19:13 51.13186 11.03672 18861 ft 410 kts 92°
2026-04-22 19:13 51.13005 11.08140 18355 ft 409 kts 92°
2026-04-22 19:13 51.12832 11.12640 17821 ft 407 kts 91°
2026-04-22 19:14 51.12669 11.17137 17277 ft 405 kts 91°
2026-04-22 19:14 51.12508 11.21586 16755 ft 402 kts 91°
2026-04-22 19:14 51.12346 11.26025 16220 ft 400 kts 91°
2026-04-22 19:14 51.12180 11.30439 15716 ft 399 kts 91°
2026-04-22 19:15 51.12070 11.33344 15468 ft 397 kts 91°
2026-04-22 19:15 51.11846 11.39204 15331 ft 396 kts 91°
2026-04-22 19:15 51.11677 11.43581 15328 ft 396 kts 91°
2026-04-22 19:15 51.11507 11.47962 15333 ft 395 kts 91°
2026-04-22 19:16 51.11388 11.52317 15317 ft 393 kts 87°
2026-04-22 19:16 51.11728 11.56593 15085 ft 388 kts 74°
2026-04-22 19:16 51.12700 11.60566 14658 ft 385 kts 63°
2026-04-22 19:16 51.13927 11.64348 14146 ft 384 kts 61°
2026-04-22 19:17 51.15182 11.68103 13591 ft 382 kts 60°
2026-04-22 19:17 51.16419 11.71827 13029 ft 379 kts 61°
2026-04-22 19:17 51.17643 11.75539 12487 ft 377 kts 61°
2026-04-22 19:17 51.18851 11.79222 11941 ft 374 kts 61°
2026-04-22 19:18 51.20052 11.82895 11420 ft 371 kts 61°
2026-04-22 19:18 51.21236 11.86527 10888 ft 369 kts 61°
2026-04-22 19:18 51.22378 11.90177 10447 ft 368 kts 64°
2026-04-22 19:18 51.23112 11.94061 10328 ft 360 kts 77°
2026-04-22 19:19 51.23383 11.97896 10324 ft 336 kts 82°
2026-04-22 19:19 51.23554 12.01500 10316 ft 314 kts 83°
2026-04-22 19:19 51.23708 12.04873 10314 ft 295 kts 82°
2026-04-22 19:19 51.23856 12.08042 10315 ft 282 kts 82°
2026-04-22 19:20 51.24004 12.11143 10194 ft 281 kts 82°
2026-04-22 19:20 51.24154 12.14254 9778 ft 281 kts 82°
2026-04-22 19:20 51.24304 12.17367 9294 ft 281 kts 82°
2026-04-22 19:20 51.24452 12.20473 8831 ft 281 kts 82°
2026-04-22 19:21 51.24598 12.23583 8366 ft 281 kts 82°
2026-04-22 19:21 51.24742 12.26645 7930 ft 280 kts 83°
2026-04-22 19:21 51.24886 12.29745 7432 ft 281 kts 83°
2026-04-22 19:21 51.25030 12.32870 6941 ft 282 kts 83°
2026-04-22 19:22 51.25205 12.35982 6431 ft 282 kts 79°
2026-04-22 19:22 51.25674 12.38998 5912 ft 280 kts 68°
2026-04-22 19:22 51.26402 12.41871 5407 ft 279 kts 64°
2026-04-22 19:22 51.27177 12.44710 4895 ft 278 kts 64°
2026-04-22 19:23 51.27951 12.47541 4368 ft 278 kts 64°
2026-04-22 19:23 51.28715 12.50348 4045 ft 272 kts 64°
2026-04-22 19:23 51.29444 12.53049 3980 ft 259 kts 64°
2026-04-22 19:23 51.30155 12.55678 3979 ft 258 kts 63°
2026-04-22 19:24 51.30856 12.58318 3926 ft 259 kts 66°
2026-04-22 19:24 51.31317 12.61106 3754 ft 261 kts 75°
2026-04-22 19:24 51.31984 12.63743 3561 ft 254 kts 51°
2026-04-22 19:24 51.33312 12.65505 3382 ft 248 kts 22°
2026-04-22 19:25 51.34976 12.66031 3208 ft 244 kts 359°
2026-04-22 19:25 51.36671 12.65904 3029 ft 244 kts 355°
2026-04-22 19:25 51.38343 12.65689 2975 ft 235 kts 352°
2026-04-22 19:25 51.39800 12.64763 2963 ft 223 kts 322°
2026-04-22 19:26 51.40731 12.62797 2985 ft 224 kts 299°
2026-04-22 19:26 51.41357 12.60501 2983 ft 226 kts 295°
2026-04-22 19:26 51.41926 12.58229 2962 ft 213 kts 295°
2026-04-22 19:26 51.42459 12.56072 2971 ft 206 kts 293°
2026-04-22 19:27 51.42734 12.53811 2974 ft 210 kts 275°
2026-04-22 19:27 51.42652 12.51461 2982 ft 212 kts 267°
2026-04-22 19:27 51.42507 12.49176 3003 ft 202 kts 269°
2026-04-22 19:27 51.42399 12.46948 2991 ft 201 kts 270°
2026-04-22 19:28 51.42299 12.44728 2908 ft 196 kts 270°
2026-04-22 19:28 51.42200 12.42621 2643 ft 184 kts 270°
2026-04-22 19:28 51.42105 12.40601 2398 ft 181 kts 270°
2026-04-22 19:28 51.42013 12.38627 2138 ft 172 kts 270°
2026-04-22 19:29 51.41926 12.36804 1923 ft 156 kts 271°
2026-04-22 19:29 51.41848 12.35170 1720 ft 139 kts 271°
2026-04-22 19:29 51.41779 12.33676 1511 ft 132 kts 271°
2026-04-22 19:29 51.41712 12.32220 1347 ft 131 kts 270°
2026-04-22 19:30 51.41691 12.31745 1289 ft 131 kts 270°
2026-04-22 19:30 51.41571 12.29270 930 ft 132 kts 264°
2026-04-22 19:30 51.41522 12.28299 806 ft 131 kts 267°
2026-04-22 19:30 51.41457 12.26867 669 ft 127 kts 265°
2026-04-22 19:31 51.41392 12.25455 509 ft 126 kts 265°
2026-04-22 19:31 51.41333 12.24165 475 ft 102 kts 266°
2026-04-22 19:31 51.41289 12.23188 469 ft 72 kts 266°
2026-04-22 19:31 51.41137 12.22522 467 ft 22 kts 181°
2026-04-22 19:32 51.41095 12.22629 468 ft 17 kts 94°
2026-04-22 19:32 51.41098 12.22803 470 ft 14 kts 83°
2026-04-22 19:32 51.41108 12.22938 474 ft 10 kts 86°
2026-04-22 19:32 51.41112 12.23034 476 ft 7 kts 86°
2026-04-22 19:33 51.41114 12.23101 476 ft 5 kts 86°
2026-04-22 19:33 51.41116 12.23151 477 ft 4 kts 86°
2026-04-22 19:33 51.41115 12.23202 478 ft 7 kts 96°
2026-04-22 19:33 51.41081 12.23277 474 ft 8 kts 158°
2026-04-22 19:34 51.41010 12.23281 472 ft 13 kts 181°
2026-04-22 19:34 51.40902 12.23280 472 ft 14 kts 191°
2026-04-22 19:34 51.40880 12.23158 470 ft 11 kts 267°
2026-04-22 19:34 51.40877 12.23089 474 ft 2 kts 266°
2026-04-22 19:35 51.40877 12.23083 474 ft 0 kts 266°